Starlink 34029

operational
NORAD ID: 63805 Int'l Des: 2025-092 Owner: SPXS Country: US Constellation: starlink
LEOCIRCULAR

About Starlink 34029

Description loading...

Live Position

Loading 3D Globe...

Upcoming Passes

Altitude History

Altitude vs Time

uPlot chart will show altitude changes over time

Two-Line Element Set

1 63805U 25092B 25303.72170039 .00044051 00000-0 15995-2 0 9997
2 63805 43.0014 186.8924 0002993 290.2239 69.8291 15.27602676 28731
Epoch: Oct 30, 2025 • Age: 16 hours

Current Status

Altitude 481.8 km
Velocity 7.63 km/s
Sub-Earth Point 15.42°N, 23.67°E
Launch Date May 4, 2025
Age 0.4 years
Type internet

Technical Details

Classification Payload
Mass 575.00 kg
Dry Mass 530.00 kg
Total Mass 575.00 kg
Length 0.30 m
Diameter 4.10 m
Span 29.00 m
Shape Box + pan
Manufacturer SPXS
Bus Type Starlink V2MO
Phase Status In Orbit
Owner/State SPXS/US

Large Constellations

Loading constellations...